Regional Weather Roundup
Issued by NWS

Home | Current Version | Previous Version | Graphics & Text | Print | Product List | Glossary On
Versions: 1 2 3 4 5 6 7 8 9 10 11 12 13 14 15 16 17 18 19 20 21 22 23 24 25 26 27 28 29 30 31 32 33 34 35 36 37 38 39 40 41 42 43 44 45 46 47 48 49 50
481
ASUS43 KDTX 301410
RWRMI
MICHIGAN HOURLY REGIONAL WEATHER ROUNDUP
NATIONAL WEATHER SERVICE DETROIT/PONTIAC MI
1000 AM EDT SAT APR 30 2016

NOTE: "FAIR" INDICATES FEW OR NO CLOUDS BELOW 12,000 FEET WITH NO
SIGNIFICANT WEATHER AND/OR OBSTRUCTION TO VISIBILITY.

MIZ047>049-052>055-059>063-066>070-074>076-081>083-301500-
SOUTHEAST LOWER MICHIGAN

CITY           SKY/WX    TMP DP  RH WIND       PRES   REMARKS
ADRIAN         MOSUNNY   49  38  65 E9        30.14R
ALMA           PTSUNNY   47  35  62 N10G17    30.16F
ANN ARBOR      CLOUDY    49  33  54 E8        30.14R
BAD AXE        CLOUDY    48  32  55 E5        30.19S
CARO           CLOUDY    46  34  63 E5        30.17F
DETROIT CITY   CLOUDY    49  34  56 E10       30.16F
DETROIT        CLOUDY    50  33  52 E12       30.15F
FLINT          MOSUNNY   52  35  52 E9        30.15F
GROSSE ILE     MOSUNNY   50  37  62 NE7       30.13F
HILLSDALE      CLOUDY    48  35  60 E13       30.12S
HOWELL         CLOUDY    52  31  45 E13       30.13F

CITY           SKY/WX    TMP DP  RH WIND       PRES   REMARKS
JACKSON        CLOUDY    50  32  50 E8        30.12F
LAMBERTVILLE   CLOUDY    52  39  61 E8        30.14R
LANSING        MOSUNNY   49  34  56 E8        30.14F
LAPEER         FAIR      50  34  53 E5        30.17F
MASON          CLOUDY    49  35  59 E6        30.13F
MONROE         CLOUDY    49  38  66 E10G21    30.14R
MT. CLEMENS    MOSUNNY   50  35  58 E8        30.15F
PONTIAC        CLOUDY    50  30  46 E12       30.14F
PORT HOPE        N/A     43  36  76 E7        30.19S
PORT HURON     MOSUNNY   52  32  46 E12       30.17F
TRI CITIES     CLOUDY    50  32  50 NE12      30.18F
MIDLAND        PTSUNNY   49  33  54 E10G16    30.18F
TROY           MOSUNNY   50  30  45 E12       30.17S
SAGINAW HB     CLOUDY    45  36  70 NE8       30.17F
$$
MIZ043>046-050>051-056>058-064>065-071>073-077>080-301500-
SOUTHWEST LOWER MICHIGAN

CITY           SKY/WX    TMP DP  RH WIND       PRES   REMARKS
BATTLE CREEK   PTSUNNY   49  36  61 E9        30.11F
BENTON HARBOR  CLOUDY    50  39  66 E12       30.07F
BIG RAPIDS     MOSUNNY   47  30  50 E10       30.15F
COLDWATER      MOSUNNY   49  37  61 E10       30.11F
FREMONT        FAIR      47  35  62 E9        30.14F
HOLLAND        PTSUNNY   49  39  68 E10       30.12F
GRAND RAPIDS   CLOUDY    49  37  63 E12       30.14S
IONIA          FAIR      46  33  60 E12       30.13F
KALAMAZOO      PTSUNNY   51  37  58 E7        30.11F
LUDINGTON      MOSUNNY   49  36  60 E10       30.15F
MARSHALL       PTSUNNY   49  35  59 E7        30.11F
MOUNT PLEASANT CLOUDY    48  33  54 E8        30.16F
MUSKEGON       CLOUDY    49  37  63 E9        30.13F
SOUTH HAVEN    CLOUDY    49  41  74 E7        30.09F
$$
MIZ016>042-301500-
NORTHERN LOWER MICHIGAN

CITY           SKY/WX    TMP DP  RH WIND       PRES   REMARKS
ALPENA         SUNNY     51  30  44 VRB3      30.22R
BEAVER ISLAND  MOSUNNY   48  31  50 E8        30.21S
BELLAIRE       PTSUNNY   52  28  39 E7        30.19F
CADILLAC       CLOUDY    48  28  45 SE7       30.15F
CHARLEVOIX     CLOUDY    50  30  46 E7        30.22S
FRANKFORT      MOSUNNY   51  38  61 E5        30.16F
GAYLORD        CLOUDY    48  28  46 SE5       30.18S
GRAYLING       CLOUDY    48  27  43 E9        30.19F
HARBOR SPRINGS SUNNY     50  29  44 E8        30.21R
HOUGHTON LAKE  CLOUDY    48  27  44 E9        30.18F
MANISTEE       MOSUNNY   48  34  57 E5        30.17S
OSCODA         SUNNY     50  27  40 S6        30.20F
PELLSTON       SUNNY     51  27  39 SE9       30.21R
ROGERS CITY    SUNNY     48  32  52 NE3       30.23S
TRAVERSE CITY  CLOUDY    50  29  44 SE5       30.17F
$$
MIZ007>008-015-301500-
EASTERN UPPER MICHIGAN

CITY           SKY/WX    TMP DP  RH WIND       PRES   REMARKS
KINROSS          N/A     46  30  53 E5        30.22F
MACKINAC ISLAN SUNNY     43  31  63 E9        30.21S
NEWBERRY       SUNNY     47  35  61 CALM      30.21S
S. S. MARIE    SUNNY     48  32  53 SE7       30.22S
MUNISING         N/A     43  36  76 NE8       30.23S
$$
MIZ004>006-011>014-085-301500-
CENTRAL UPPER MICHIGAN

CITY           SKY/WX    TMP DP  RH WIND       PRES   REMARKS
MANISTIQUE     MOSUNNY   49  35  60 N5        30.20S
ESCANABA       MOSUNNY   48  34  57 NE8       30.20F
MENOMINEE      MOSUNNY   43  34  70 E17       30.18F
SAWYER-GWINN   SUNNY     43  32  65 NE13      30.24S
$$
MIZ001>003-009>011-084-301500-
WESTERN UPPER MICHIGAN

CITY           SKY/WX    TMP DP  RH WIND       PRES   REMARKS
IRON MOUNTAIN  CLOUDY    49  31  49 NE8       30.19S
HOUGHTON       CLOUDY    46  33  60 NE8       30.25S
COPPER HARBOR    N/A     39  36  89 E9        30.28R WCI  33
IRONWOOD         N/A     45  32  61 E14       30.20S
$$

ABBREVIATIONS USED IN REMARKS
   TC - TEMPERATURE IN CELSIUS
  WCI - WIND CHILL INDEX
   HX - HEAT INDEX
  VSB - VISIBILITY





USA.gov is the U.S. government's official web portal to all federal, state and local government web resources and services.